Meteo Giornale » Osservazioni meteo Liberia » Grand Bassa Roberts Fld
ore: 18:30 - Osservazioni Meteo Grand Bassa Roberts Fld
Lat. 6° 15' N Lon. 10° 21' W Alt. 18 metri s.l.m.
26 °C
Molto Nuvoloso
Temp. 24 Ore
23 °C
29 °C
Sud-Ovest
11.1 Km/h
Dew point 24 °C
Umidità 88 %
Visibilità 10 Km
Il sole sorge alle ore 06:34
Il sole tramonta alle ore 18:48
| Data e Ora | Cielo e Fenomeni | T °C | DP °C | Um. % | Pres. hPa | Vis. km | Vento km/h | |
|---|---|---|---|---|---|---|---|---|
| Oggi h: 18:30 | Molto Nuvoloso | 26 | 24 | 88 | 1011 | 10 | SO 11.1 | |
| Oggi h: 18:00 | Molto Nuvoloso | 26 | 25 | 94 | 1011 | 10 | S/SO 11.1 | |
| Oggi h: 17:30 | Molto Nuvoloso | 27 | 24 | 83 | 1011 | 10 | S/SO 20.3 | |
| Oggi h: 17:00 | Molto Nuvoloso | 26 | 25 | 94 | 1011 | 10 | S/SO 16.7 | |
| Oggi h: 16:30 | Molto Nuvoloso | 26 | 25 | 94 | 1011 | 10 | S/SO 18.5 | |
| Oggi h: 16:00 | Molto Nuvoloso | 26 | 24 | 88 | 1011 | 10 | S/SO 20.3 | |
| Oggi h: 15:30 | Molto Nuvoloso | 26 | 24 | 88 | 1011 | 10 | S 14.8 | |
| Oggi h: 15:00 | Temporale | 25 | 24 | 94 | 1011 | 10 | S/SE 13 | |
| Oggi h: 14:30 | Temporale | 25 | 24 | 94 | 1012 | 9 | S 11.1 | |
| Oggi h: 14:00 | Temporale | 26 | 25 | 94 | 1012 | 9 | E/SE 9.3 | |
| Oggi h: 13:30 | Temporale | 26 | 25 | 94 | 1013 | 8 | E/SE 11.1 | |
| Oggi h: 13:00 | Temporale | 27 | 25 | 88 | 1013 | 10 | S/SE 9.3 | |
| Oggi h: 12:30 | Molto Nuvoloso | 28 | 25 | 83 | 1014 | 10 | S 13 | |
| Oggi h: 12:00 | Molto Nuvoloso | 29 | 26 | 83 | 1014 | 10 | S 7.4 | |
| Oggi h: 11:30 | Molto Nuvoloso | 28 | 25 | 83 | 1014 | 10 | SO 16.7 | |
| Oggi h: 11:00 | Molto Nuvoloso | 28 | 25 | 83 | 1014 | 10 | S/SO 11.1 | |
| Oggi h: 10:30 | Molto Nuvoloso | 27 | 25 | 88 | 1014 | 10 | N 5.5 | |
| Oggi h: 10:00 | Molto Nuvoloso | 26 | 25 | 94 | 1014 | 10 | S 9.3 | |
| Oggi h: 09:30 | Molto Nuvoloso | 25 | 24 | 94 | 1015 | 10 | N 5.5 | |
| Oggi h: 09:00 | Molto Nuvoloso | 25 | 23 | 88 | 1014 | 10 | N 3.7 | |
| Oggi h: 08:30 | Molto Nuvoloso | 25 | 23 | 88 | 1014 | 10 | N 1.8 | |
| Oggi h: 08:00 | Molto Nuvoloso | 24 | 23 | 94 | 1013 | 10 | N 5.5 | |
| Oggi h: 07:30 | Molto Nuvoloso | 24 | 23 | 94 | 1013 | 10 | N 5.5 | |
| Oggi h: 07:00 | Molto Nuvoloso | 24 | 23 | 94 | 1012 | 10 | N 0 | |
| Oggi h: 06:30 | Molto Nuvoloso | 24 | 23 | 94 | 1012 | 10 | N 5.5 | |
| Oggi h: 06:00 | Molto Nuvoloso | 23 | 23 | 100 | 1012 | 10 | N 5.5 | |
| Oggi h: 05:30 | Molto Nuvoloso | 23 | 23 | 100 | 1012 | 10 | N/NE 7.4 | |
| Oggi h: 05:00 | Molto Nuvoloso | 23 | 23 | 100 | 1012 | 10 | N/NE 7.4 | |
| Oggi h: 04:30 | Molto Nuvoloso | 23 | 23 | 100 | 1012 | 10 | N 5.5 | |
| Oggi h: 04:00 | Pioviggine | 23 | 23 | 100 | 1012 | 7 | N 5.5 | |
| Oggi h: 02:30 | Pioviggine | 23 | 23 | 100 | 1013 | 8 | N 0 | |
| Oggi h: 01:30 | Pioviggine | 23 | 23 | 100 | 1013 | 8 | N 3.7 | |
| Ieri h: 23:30 | Molto Nuvoloso | 26 | 25 | 94 | 1013 | 10 | N 5.5 | |
| Ieri h: 23:00 | Molto Nuvoloso | 26 | 25 | 94 | 1013 | 10 | N 5.5 | |
| Ieri h: 22:30 | Molto Nuvoloso | 26 | 25 | 94 | 1013 | 10 | N 5.5 | |
| Ieri h: 22:00 | Molto Nuvoloso | 26 | 25 | 94 | 1013 | 10 | N 3.7 | |
| Ieri h: 21:30 | Molto Nuvoloso | 26 | 25 | 94 | 1013 | 10 | S/SO 7.4 | |
| Ieri h: 21:00 | Molto Nuvoloso | 26 | 25 | 94 | 1012 | 10 | N 1.8 | |
| Ieri h: 20:30 | Molto Nuvoloso | 26 | 25 | 94 | 1012 | 10 | S 7.4 | |
| Ieri h: 20:00 | Molto Nuvoloso | 26 | 25 | 94 | 1012 | 10 | S 9.3 | |
| Ieri h: 19:30 | Nuvoloso | 27 | 24 | 83 | 1011 | 10 | S/SO 7.4 | |
| Ieri h: 19:00 | Poco Nuvoloso | 27 | 24 | 83 | 1011 | 10 | S/SO 11.1 | |



